DELTA 1 DEB, 42091

Orbit data source: Space-Track

DELTA 1 DEB, 42091 is space debris in SSO originally from a launch on Sun, 15 Dec 1968 UTC launched from the Air Force Western Test Range (AFWTR). Debris objects in space refer to the collection of defunct objects orbiting the Earth. Examples of debris include non-operational satellites, rocket bodies, and fragments generated from explosions, collisions, or faulty payload assembly.

Loading next visibility...
Identifier
42091, 1968-114T
Orbit
SSO
Country
Flag of USUS
Related business
Manufacturer
Aerojet
Mission
Spacecraft
Bus & Motor
Unknown
Mass
Unknown
Launch date (UTC)
1968-12-15 (58 years ago)
Launch vehicle
Unknown
Launch site
Air Force Western Test Range (AFWTR)
Object type
Payload
Rocket body
Debris
Shape & HBR
Unknown shape, 0.1 m
Radar Cross Section
Medium (>0.1 m² and <1 m²)

Expand to show TLE details & history
Last TLE update: 1 week ago

TLE from 1 week ago
0 DELTA 1 DEB
1 42091U 68114T   26165.68876323  .00000026  00000-0  46597-3 0  9991
2 42091 101.4783 142.2852 0035896 311.5807 231.2937 12.47208123571800
Epoch: 2026-06-14T16:31Z
TLE epoch observation values (Epoch: 2026-06-14T16:31:49.143Z)
Latitude
-2.62234°
Longitude
170.81427°
Altitude
1,496.847 km
Speed
7.108 km/s
True Right ascension
21h 27m 01s
True Declination
-2° 36' 29"
Sunlit
Object was in daylight at epoch
Visualization orbit readout
Latitude
Unknown
Longitude
Unknown
Altitude
Unknown
Speed
Unknown
Apparent Right ascension
Unknown
Apparent Declination
Unknown
Sunlit
N/A
Visualization observer readout
Local Sidereal Time
21:44:00
Azimuth
Unknown
Elevation
Unknown
Doppler factor
Unknown
Orbital elements
Apogee altitude
1,501.914 km
Perigee altitude
1,445.544 km
Semi-major axis
7,851.866 km
Eccentricity
0.00359
Inclination
101.4783°
RAAN
142.2852°
Arg. of periapsis
311.5807°
True anomaly
230.97361°
Mean anomaly
231.2937°
Eccentric anomaly
231.13356°
Mean motion
3.11949 °/min
Orbital period
115.4 mins
BSTAR
0.00046597
Loading maneuver chart data...
Computing Atmospheric mass density...
Loading historical data...
Loading historical data...
Loading historical data...
Loading historical data...
Loading historical data...
Loading historical data...
Loading historical data...

Documentation

Showing up to 5 results
|